[[{"header":{"parameterUnit":"m.s-1","parameterCategory":1,"la1":30.2991,"la2":30.254,"lo1":-89.0895,"lo2":-89.0444,"dy":0.0017,"dx":0.0017,"nx":28,"ny":28,"refTime":"2024-07-17T03:00:00:Z","depth":0,"parameterNumber":2,"parameterNumberName":"U-component_of_WINDS"},"data":[0,0,0,0,0,0,0,0,0,0,0,0,0,0,0,0,0,0,0,0,0,0,0,0,0,0,0,0,0,0,0,0,0,0,0,0,0,0,0,0,0,0,0,0,0,0,0,0,0,0,0,0,0,0,0,0,0,0,2.8636,2.8636,0,2.8626,2.8626,2.8626,2.8562,2.856,2.8559,2.8557,2.8547,2.8548,2.8549,0,0,0,0,0,0,0,0,0,0,0,0,0,2.8596,2.8598,2.8636,2.8636,2.8635,2.8626,2.8626,2.8626,2.8562,2.856,2.8558,2.8557,2.8547,2.8548,2.8549,0,0,0,0,0,0,0,0,0,0,0,0,0,2.8603,2.8598,2.8636,2.8603,2.86,2.8626,2.8626,2.8626,2.8563,2.856,2.8558,2.8556,2.8546,2.8548,2.855,2.8607,0,0,2.8555,2.8556,0,0,0,0,0,0,0,0,2.8603,2.8604,2.8608,2.8605,2.8602,2.8593,2.8608,2.8619,2.8563,2.8577,2.8557,2.8555,2.8564,2.8564,2.8567,2.8606,2.8606,2.8555,2.8556,2.8557,2.8557,0,0,0,0,0,0,0,2.8602,2.8604,2.8632,2.8608,2.8604,2.8587,2.8586,2.861,2.8584,2.8575,2.8571,2.857,2.8562,2.8566,2.8567,2.8606,2.8555,2.8557,2.8558,2.8558,2.8687,2.869,0,0,0,0,0,0,2.8607,2.8605,2.8632,2.8632,2.8596,2.859,2.8588,2.8598,2.8583,2.8579,2.8572,2.8567,2.8564,2.8565,2.8566,2.8629,2.8557,2.8558,2.8559,2.8685,2.8688,2.869,0,0,0,0,0,0,2.8606,2.861,2.8632,2.8617,2.8618,2.8593,2.8605,2.8599,2.8603,2.8581,2.8576,2.8581,2.8562,2.8564,2.8596,2.8628,2.8559,2.8561,2.8682,2.8686,2.8689,2.8758,0,0,0,0,0,0,2.8605,2.861,2.8632,2.8618,2.8619,2.8664,2.8607,2.8601,2.8606,2.86,2.8588,2.8584,2.8561,2.8594,2.8598,2.8629,2.8562,2.8679,2.8684,2.8688,2.8752,2.8763,2.8772,0,0,0,0,0,2.8604,2.8653,2.8634,2.8637,2.8647,2.8666,2.8667,2.8639,2.8609,2.863,2.8616,2.8584,2.8625,2.8598,2.8602,2.8634,2.8677,2.8683,2.8688,2.8748,2.8761,2.8772,0,0,0,0,0,0,2.8672,2.865,2.8629,2.8674,2.8672,2.8655,2.8681,2.8654,2.8661,2.8654,2.862,2.8618,2.8655,2.8648,2.8619,2.8687,2.8645,2.8652,2.869,2.8702,2.8712,2.8711,2.8564,0,0,0,0,0,2.8692,2.871,2.869,2.8732,2.8732,2.8707,2.8714,2.8693,2.8689,2.8688,2.8676,2.8674,2.8685,2.8694,2.8703,2.8752,2.8747,2.8776,2.8786,2.8794,2.8799,2.8821,2.8832,2.8708,2.8708,2.8708,0,0,2.8734,2.8724,2.8738,2.8745,2.8741,2.8758,2.8707,2.8729,2.8741,2.8692,2.872,2.8712,2.8706,2.8746,2.8763,2.8742,2.8832,2.8801,2.8808,2.8808,2.8827,2.8839,2.885,2.8712,2.8711,2.871,0,0,2.8818,2.8815,2.8847,2.8844,2.8838,2.8821,2.8829,2.8815,2.8807,2.8836,2.8798,2.8812,2.8834,2.8831,2.8832,2.8913,2.8883,2.8918,2.8969,2.899,2.9,2.9008,2.9034,2.9044,2.8923,2.8924,2.8924,0,2.8871,2.8897,2.8867,2.889,2.8893,2.885,2.8881,2.8879,2.8877,2.888,2.8856,2.888,2.8874,2.8911,2.893,2.8934,2.894,2.8918,2.9001,2.9009,2.9016,2.904,2.9051,2.8928,2.8927,2.8927,2.8926,0,2.8959,2.8978,2.9005,2.9002,2.9009,2.9037,2.901,2.902,2.8998,2.8983,2.9012,2.9002,2.9008,2.9016,2.8996,2.9049,2.9035,2.9007,2.8964,2.9033,2.9054,2.9064,2.8933,2.8932,2.8931,2.893,0,0,2.9086,2.9066,2.9076,2.9073,2.9062,2.9075,2.91,2.9105,2.9113,2.9113,2.9131,2.915,2.9123,2.9124,2.9103,2.9122,2.9183,2.9091,2.909,2.9105,2.9237,2.9256,2.9268,2.9164,2.9166,2.9167,2.9237,0,2.9164,2.9204,2.9177,2.9222,2.9236,2.9195,2.9216,2.9211,2.9198,2.9207,2.9193,2.9205,2.917,2.917,2.9188,2.9172,2.9208,2.9167,2.9178,2.9179,2.9177,2.928,2.93,2.9366,2.9246,2.9247,2.9248,0,2.926,2.9262,2.9308,2.9292,2.9297,2.9317,2.9317,2.9328,2.9322,2.931,2.9311,2.9284,2.9306,2.9265,2.9293,2.9265,2.9268,2.9261,2.9263,2.9261,2.9215,2.9277,2.9387,2.9396,2.9262,2.9261,2.926,0,2.9342,2.9358,2.9386,2.9385,2.9369,2.9382,2.9376,2.9367,2.9371,2.9372,2.9374,2.9378,2.938,2.9383,2.9357,2.9331,2.9387,2.9345,2.9376,2.9376,2.9387,2.9386,2.9497,2.9395,2.9395,2.9395,2.9395,0,2.943,2.9459,2.9422,2.944,2.9469,2.9439,2.9469,2.9458,2.945,2.9463,2.9429,2.9442,2.9409,2.9418,2.9398,2.9422,2.9424,2.9414,2.9408,2.9415,2.9416,2.9414,2.9408,2.9398,2.9397,2.9397,2.9396,0,2.9527,2.9504,2.9531,2.9512,2.9508,2.9531,2.9514,2.9529,2.9513,2.953,2.9532,2.9507,2.9516,2.9491,2.9497,2.9483,2.9517,2.9505,2.9519,2.9514,2.9545,2.9541,2.9655,2.9667,2.9562,2.9563,2.9564,0,2.9583,2.9603,2.9586,2.9592,2.9587,2.9598,2.9601,2.9572,2.9576,2.9569,2.9584,2.959,2.9592,2.9608,2.959,2.9593,2.9579,2.9619,2.9579,2.9585,2.9575,2.9573,2.9574,2.9626,2.9628,2.9629,2.963,0,2.9683,2.967,2.9676,2.9678,2.9682,2.9682,2.968,2.9687,2.9655,2.9662,2.967,2.9672,2.9677,2.9682,2.9681,2.9674,2.9645,2.9643,2.9649,2.9655,2.9661,2.9655,2.9537,2.9639,2.9638,2.9638,2.9637,2.9637,2.9758,2.9773,2.9763,2.977,2.9765,2.9763,2.9774,2.9759,2.9765,2.9766,2.9749,2.976,2.9751,2.9746,2.9742,2.9749,2.9731,2.9741,2.9743,2.9745,2.9749,2.9662,2.9749,2.9749,2.9749,2.9749,2.9748,0,2.9853,2.9844,2.9851,2.9848,2.9853,2.9827,2.9822,2.9828,2.9838,2.9832,2.9835,2.9843,2.9848,2.983,2.9832,2.9841,2.9828,2.9842,2.9839,2.9837,2.9767,2.976,2.9852,2.9852,2.9852,2.9852,2.9852,2.9852,2.9903,2.9926,2.9912,2.9931,2.9922,2.9932,2.9931,2.9928,2.9923,2.9933,2.9937,2.9925,2.9913,2.9914,2.9916,2.9911,2.9911,2.9929,2.9919,2.9853,2.9843,2.9833,2.9825,2.9931,2.9931,2.9988,2.9989,2.9989]},{"header":{"parameterUnit":"m.s-1","parameterCategory":1,"la1":30.2991,"la2":30.254,"lo1":-89.0895,"lo2":-89.0444,"dy":0.0017,"dx":0.0017,"nx":28,"ny":28,"refTime":"2024-07-17T03:00:00:Z","depth":0,"parameterNumber":3,"parameterNumberName":"V-component_of_WINDS"},"data":[0,0,0,0,0,0,0,0,0,0,0,0,0,0,0,0,0,0,0,0,0,0,0,0,0,0,0,0,0,0,0,0,0,0,0,0,0,0,0,0,0,0,0,0,0,0,0,0,0,0,0,0,0,0,0,0,0,0,5.2755,5.2757,0,5.2936,5.2938,5.294,5.2917,5.2914,5.2911,5.2908,5.3086,5.3094,5.3101,0,0,0,0,0,0,0,0,0,0,0,0,0,5.2378,5.2385,5.2755,5.2757,5.2759,5.2936,5.2939,5.2941,5.2917,5.2913,5.291,5.2906,5.3084,5.3093,5.3102,0,0,0,0,0,0,0,0,0,0,0,0,0,5.2548,5.2387,5.2754,5.2769,5.2772,5.2936,5.2939,5.2942,5.2918,5.2913,5.2909,5.2905,5.3081,5.3092,5.3103,5.3261,0,0,5.3137,5.3142,0,0,0,0,0,0,0,0,5.2539,5.2562,5.2764,5.2768,5.2772,5.2899,5.2871,5.3049,5.2919,5.2862,5.2908,5.2903,5.3027,5.3043,5.3086,5.327,5.3277,5.3138,5.3145,5.315,5.3153,0,0,0,0,0,0,0,5.2527,5.2554,5.2826,5.2767,5.2772,5.2763,5.2782,5.2905,5.2967,5.2867,5.2866,5.2888,5.3028,5.3075,5.309,5.328,5.3138,5.3148,5.3155,5.3159,5.3599,5.3604,0,0,0,0,0,0,5.2513,5.2545,5.282,5.2832,5.2642,5.2774,5.2795,5.2863,5.2966,5.2977,5.2891,5.2886,5.3058,5.3077,5.3096,5.3287,5.315,5.3161,5.3167,5.3594,5.36,5.3605,0,0,0,0,0,0,5.2505,5.2538,5.2813,5.2688,5.2722,5.2785,5.2861,5.2869,5.2916,5.2985,5.2995,5.2929,5.3056,5.3081,5.322,5.3293,5.3166,5.3176,5.3588,5.3596,5.3603,5.367,0,0,0,0,0,0,5.2494,5.2535,5.2598,5.269,5.2729,5.2937,5.2866,5.2875,5.2936,5.2931,5.3022,5.3033,5.3054,5.3204,5.3232,5.3306,5.3185,5.3582,5.3592,5.36,5.3662,5.3679,5.3694,0,0,0,0,0,5.2481,5.2609,5.2602,5.2635,5.281,5.2942,5.2964,5.2988,5.2942,5.3005,5.3048,5.303,5.328,5.3218,5.3249,5.3328,5.3578,5.3589,5.36,5.3655,5.3676,5.3693,0,0,0,0,0,0,5.2522,5.2621,5.2614,5.2777,5.2851,5.2937,5.3017,5.301,5.3097,5.3088,5.3111,5.3132,5.3273,5.3314,5.3243,5.3485,5.3422,5.344,5.3453,5.3474,5.349,5.3476,5.3194,0,0,0,0,0,5.2551,5.2652,5.2732,5.2867,5.2905,5.2955,5.3013,5.3025,5.3102,5.3133,5.3186,5.326,5.3354,5.3416,5.3508,5.3667,5.3685,5.3737,5.3753,5.3765,5.378,5.3865,5.3888,5.3642,5.3642,5.3642,0,0,5.261,5.2676,5.2738,5.2877,5.2936,5.3037,5.2981,5.3091,5.3166,5.3148,5.3284,5.3326,5.3409,5.3559,5.3627,5.3598,5.3852,5.378,5.3789,5.3797,5.3879,5.3902,5.3923,5.3649,5.3648,5.3647,0,0,5.2769,5.2831,5.2949,5.301,5.3101,5.3132,5.3161,5.3248,5.3276,5.3413,5.3401,5.3488,5.3652,5.3711,5.3762,5.3941,5.3926,5.397,5.4053,5.4135,5.4155,5.4172,5.4234,5.4256,5.3984,5.3985,5.3985,0,5.283,5.2986,5.301,5.3122,5.3182,5.3172,5.3291,5.3347,5.3462,5.3502,5.3467,5.3671,5.3727,5.3889,5.3932,5.3975,5.4005,5.396,5.415,5.4168,5.4184,5.4243,5.4267,5.3989,5.3989,5.3988,5.3988,0,5.3055,5.3162,5.3247,5.336,5.3429,5.3543,5.3582,5.3649,5.3654,5.3688,5.3825,5.3891,5.3995,5.4034,5.404,5.4196,5.4175,5.4145,5.4082,5.4212,5.4268,5.4291,5.3996,5.3994,5.3993,5.3992,0,0,5.3247,5.3372,5.3402,5.3452,5.3551,5.3633,5.3744,5.3848,5.3903,5.3981,5.4074,5.4212,5.4184,5.4242,5.4254,5.4326,5.4461,5.4287,5.429,5.4316,5.4635,5.4656,5.4682,5.4452,5.4456,5.446,5.4627,0,5.3415,5.3616,5.3641,5.3818,5.3915,5.3907,5.4003,5.4072,5.4107,5.4192,5.4228,5.4325,5.4283,5.4317,5.4389,5.443,5.4525,5.4418,5.4535,5.4539,5.4514,5.4712,5.4735,5.489,5.4649,5.4653,5.4656,0,5.3638,5.3725,5.3913,5.3995,5.4037,5.4125,5.4219,5.4302,5.4378,5.4398,5.4462,5.4464,5.4576,5.4508,5.4661,5.4587,5.4636,5.4663,5.467,5.4681,5.4605,5.4727,5.494,5.4963,5.4691,5.4688,5.4685,0,5.3757,5.392,5.4053,5.4097,5.4197,5.4258,5.4302,5.4375,5.4434,5.4516,5.4554,5.4647,5.4698,5.4768,5.4793,5.4742,5.4944,5.4879,5.496,5.496,5.5003,5.5,5.5226,5.5036,5.5036,5.5036,5.5035,0,5.3941,5.4056,5.4108,5.419,5.4317,5.4342,5.4466,5.4507,5.4571,5.4657,5.4654,5.4735,5.4764,5.4849,5.4869,5.4991,5.5014,5.503,5.5034,5.5031,5.5028,5.5063,5.5052,5.5042,5.504,5.5039,5.5038,0,5.4096,5.4136,5.428,5.4363,5.4386,5.4476,5.4546,5.4623,5.4655,5.4765,5.4792,5.4842,5.4941,5.4974,5.5093,5.5107,5.5248,5.5243,5.5223,5.5224,5.5303,5.5294,5.5558,5.5593,5.5381,5.5383,5.5385,0,5.4211,5.4299,5.4392,5.4451,5.4498,5.4593,5.4654,5.4681,5.4744,5.4836,5.4901,5.5,5.5081,5.5239,5.5284,5.5375,5.5371,5.5457,5.5384,5.5377,5.537,5.5364,5.5372,5.547,5.5472,5.5474,5.5476,0,5.441,5.4425,5.4514,5.461,5.4683,5.476,5.4833,5.4881,5.4917,5.4988,5.509,5.5153,5.5275,5.5372,5.5464,5.5505,5.5496,5.5498,5.5522,5.5518,5.5503,5.551,5.5259,5.5492,5.549,5.5489,5.5488,5.5488,5.4547,5.4624,5.4701,5.48,5.4858,5.4927,5.5003,5.5045,5.5132,5.5235,5.5244,5.5354,5.5425,5.5548,5.5594,5.5678,5.5653,5.5687,5.5696,5.5704,5.5709,5.549,5.5695,5.5694,5.5694,5.5693,5.5693,0,5.4744,5.4793,5.4884,5.4988,5.5064,5.5051,5.5131,5.5195,5.5293,5.5361,5.544,5.5556,5.565,5.5702,5.5794,5.5851,5.5849,5.5874,5.587,5.5879,5.5727,5.5697,5.5875,5.5875,5.5875,5.5875,5.5875,5.5875,5.4856,5.4986,5.5009,5.5165,5.5213,5.5322,5.5369,5.543,5.5484,5.5615,5.5694,5.5728,5.5788,5.5885,5.5969,5.5981,5.6015,5.6043,5.6052,5.5909,5.589,5.5872,5.5844,5.605,5.6051,5.6198,5.6199,5.62]}]]